Tiempo cada hora Dabrowiec

Hoy, 4 Agosto, Miércoles

Tiempo Temperatura Precipitaciones Viento Presión Humedad
00:00 +15°C° 0.1 mm 1 mps 751 mmHg 90%
01:00 +15°C° 0.1 mm 1 mps 751 mmHg 90%
02:00 +15°C° 0.2 mm 1 mps 751 mmHg 90%
03:00 +15°C° 0.2 mm 1 mps 751 mmHg 91%
04:00 +14°C° 0.2 mm 1 mps 750 mmHg 91%
05:00 +15°C° 0.1 mm 1 mps 751 mmHg 88%
06:00 +16°C° 0.1 mm 1 mps 751 mmHg 85%
07:00 +18°C° 0.1 mm 1 mps 751 mmHg 82%
08:00 +19°C° 0.2 mm 1 mps 751 mmHg 78%
09:00 +19°C° 0.2 mm 2 mps 751 mmHg 74%
10:00 +20°C° 0.2 mm 2 mps 751 mmHg 70%
11:00 +20°C° 0.4 mm 2 mps 751 mmHg 68%
12:00 +21°C° 0.4 mm 2 mps 751 mmHg 65%
13:00 +21°C° 0.4 mm 2 mps 751 mmHg 62%
14:00 +23°C° 0.4 mm 1 mps 750 mmHg 61%
15:00 +23°C° 0.4 mm 1 mps 750 mmHg 60%
16:00 +23°C° 0.4 mm 1 mps 750 mmHg 59%
17:00 +22°C° 0.4 mm 1 mps 750 mmHg 65%
18:00 +21°C° 0.4 mm 1 mps 750 mmHg 70%
19:00 +20°C° 0.4 mm 1 mps 750 mmHg 76%
20:00 +19°C° 0.1 mm 1 mps 750 mmHg 79%
21:00 +18°C° 0.1 mm 1 mps 750 mmHg 83%
22:00 +16°C° 0.1 mm 1 mps 750 mmHg 86%
23:00 +16°C° 0 mm 1 mps 750 mmHg 87%

Mañana, 5 Agosto, Jueves

Tiempo Temperatura Precipitaciones Viento Presión Humedad
00:00 +16°C° 0 mm 1 mps 750 mmHg 88%
01:00 +16°C° 0 mm 1 mps 750 mmHg 89%
02:00 +15°C° 0 mm 1 mps 750 mmHg 91%
03:00 +15°C° 0 mm 1 mps 750 mmHg 92%
04:00 +15°C° 0 mm 1 mps 749 mmHg 93%
05:00 +16°C° 0 mm 1 mps 749 mmHg 90%
06:00 +18°C° 0 mm 1 mps 749 mmHg 86%
07:00 +18°C° 0 mm 2 mps 749 mmHg 83%
08:00 +19°C° 0.6 mm 2 mps 749 mmHg 79%
09:00 +20°C° 0.6 mm 2 mps 749 mmHg 76%
10:00 +21°C° 0.6 mm 2 mps 749 mmHg 73%
11:00 +21°C° 0.9 mm 2 mps 748 mmHg 70%
12:00 +23°C° 0.9 mm 2 mps 748 mmHg 67%
13:00 +24°C° 0.9 mm 2 mps 748 mmHg 64%
14:00 +23°C° 0.6 mm 2 mps 748 mmHg 65%
15:00 +23°C° 0.6 mm 2 mps 747 mmHg 66%
16:00 +23°C° 0.6 mm 2 mps 747 mmHg 67%
17:00 +21°C° 0.4 mm 2 mps 747 mmHg 72%
18:00 +20°C° 0.4 mm 2 mps 747 mmHg 77%
19:00 +20°C° 0.4 mm 1 mps 747 mmHg 82%
20:00 +19°C° 0.1 mm 1 mps 747 mmHg 85%
21:00 +18°C° 0.1 mm 1 mps 747 mmHg 87%
22:00 +18°C° 0.1 mm 1 mps 747 mmHg 90%
23:00 +18°C° 0.3 mm 1 mps 747 mmHg 91%

Pasado mañana, 6 Agosto, Viernes

Tiempo Temperatura Precipitaciones Viento Presión Humedad
00:00 +16°C° 0.3 mm 1 mps 747 mmHg 92%
01:00 +16°C° 0.3 mm 1 mps 747 mmHg 94%
02:00 +16°C° 0.1 mm 1 mps 747 mmHg 94%
03:00 +16°C° 0.1 mm 1 mps 747 mmHg 94%
04:00 +16°C° 0.1 mm 1 mps 746 mmHg 95%
05:00 +16°C° 0.2 mm 1 mps 747 mmHg 93%
06:00 +16°C° 0.2 mm 1 mps 747 mmHg 92%
07:00 +18°C° 0.2 mm 1 mps 747 mmHg 91%
08:00 +19°C° 0.1 mm 1 mps 747 mmHg 85%
09:00 +19°C° 0.1 mm 2 mps 747 mmHg 80%
10:00 +19°C° 0.1 mm 2 mps 747 mmHg 75%
11:00 +21°C° 0.2 mm 2 mps 747 mmHg 68%
12:00 +23°C° 0.2 mm 1 mps 747 mmHg 62%
13:00 +25°C° 0.2 mm 1 mps 747 mmHg 55%
14:00 +24°C° 0.5 mm 1 mps 747 mmHg 57%
15:00 +24°C° 0.5 mm 1 mps 746 mmHg 59%
16:00 +24°C° 0.5 mm 1 mps 746 mmHg 60%
17:00 +23°C° 0.3 mm 1 mps 747 mmHg 66%
18:00 +21°C° 0.3 mm 2 mps 747 mmHg 71%
19:00 +20°C° 0.3 mm 2 mps 747 mmHg 77%
20:00 +19°C° 0.1 mm 2 mps 747 mmHg 79%
21:00 +18°C° 0.1 mm 2 mps 747 mmHg 82%
22:00 +17°C° 0.1 mm 2 mps 747 mmHg 85%
23:00 +17°C° 0 mm 2 mps 747 mmHg 86%

7 Agosto, Sábado

Tiempo Temperatura Precipitaciones Viento Presión Humedad
00:00 +16°C° 0 mm 2 mps 747 mmHg 88%
01:00 +16°C° 0 mm 2 mps 747 mmHg 89%
02:00 +16°C° 0 mm 2 mps 747 mmHg 91%
03:00 +16°C° 0 mm 2 mps 747 mmHg 92%
04:00 +15°C° 0 mm 2 mps 747 mmHg 94%
05:00 +16°C° 0 mm 2 mps 747 mmHg 89%
06:00 +17°C° 0 mm 2 mps 748 mmHg 85%
07:00 +18°C° 0 mm 2 mps 748 mmHg 81%
08:00 +20°C° 0 mm 3 mps 748 mmHg 72%
09:00 +22°C° 0 mm 3 mps 748 mmHg 64%
10:00 +24°C° 0 mm 3 mps 747 mmHg 56%
11:00 +25°C° 0 mm 3 mps 747 mmHg 51%
12:00 +26°C° 0 mm 4 mps 747 mmHg 47%
13:00 +28°C° 0 mm 4 mps 747 mmHg 43%
14:00 +27°C° 0 mm 3 mps 747 mmHg 44%
15:00 +27°C° 0 mm 3 mps 747 mmHg 45%
16:00 +27°C° 0 mm 2 mps 747 mmHg 46%
17:00 +26°C° 0 mm 2 mps 747 mmHg 52%
18:00 +25°C° 0 mm 2 mps 747 mmHg 59%
19:00 +23°C° 0 mm 1 mps 747 mmHg 65%
20:00 +21°C° 0.2 mm 2 mps 747 mmHg 71%
21:00 +21°C° 0.2 mm 2 mps 747 mmHg 77%
22:00 +20°C° 0.2 mm 3 mps 747 mmHg 82%
23:00 +19°C° 1.4 mm 3 mps 748 mmHg 87%

8 Agosto, Domingo

Tiempo Temperatura Precipitaciones Viento Presión Humedad
00:00 +18°C° 1.4 mm 2 mps 748 mmHg 91%
01:00 +18°C° 1.4 mm 2 mps 748 mmHg 96%
02:00 +18°C° 0.8 mm 3 mps 748 mmHg 94%
03:00 +17°C° 0.8 mm 3 mps 748 mmHg 93%
04:00 +17°C° 0.8 mm 4 mps 748 mmHg 92%
05:00 +18°C° 0 mm 4 mps 749 mmHg 90%
06:00 +18°C° 0 mm 4 mps 749 mmHg 88%
07:00 +17°C° 0 mm 5 mps 750 mmHg 86%
08:00 +19°C° 0 mm 5 mps 750 mmHg 76%
09:00 +21°C° 0 mm 5 mps 751 mmHg 66%
10:00 +23°C° 0 mm 4 mps 751 mmHg 56%
11:00 +25°C° 0 mm 5 mps 751 mmHg 51%
12:00 +25°C° 0 mm 5 mps 751 mmHg 46%
13:00 +26°C° 0 mm 5 mps 751 mmHg 42%
14:00 +26°C° 0 mm 4 mps 752 mmHg 41%
15:00 +26°C° 0 mm 4 mps 752 mmHg 41%
16:00 +26°C° 0 mm 4 mps 752 mmHg 41%
17:00 +25°C° 0 mm 3 mps 752 mmHg 48%
18:00 +24°C° 0 mm 2 mps 752 mmHg 55%
19:00 +21°C° 0 mm 2 mps 753 mmHg 62%
20:00 +20°C° 0.1 mm 2 mps 753 mmHg 66%
21:00 +19°C° 0.1 mm 3 mps 754 mmHg 71%
22:00 +18°C° 0.1 mm 3 mps 754 mmHg 76%
23:00 +18°C° 0 mm 3 mps 754 mmHg 79%

9 Agosto, Lunes

Tiempo Temperatura Precipitaciones Viento Presión Humedad
00:00 +17°C° 0 mm 2 mps 754 mmHg 81%
01:00 +17°C° 0 mm 2 mps 755 mmHg 84%
02:00 +16°C° 0 mm 2 mps 755 mmHg 85%
03:00 +16°C° 0 mm 2 mps 755 mmHg 86%
04:00 +15°C° 0 mm 2 mps 755 mmHg 88%
05:00 +16°C° 0 mm 2 mps 755 mmHg 83%
06:00 +17°C° 0 mm 2 mps 755 mmHg 79%
07:00 +18°C° 0 mm 2 mps 756 mmHg 74%
08:00 +20°C° 0 mm 2 mps 756 mmHg 66%
09:00 +22°C° 0 mm 3 mps 756 mmHg 59%
10:00 +24°C° 0 mm 3 mps 756 mmHg 51%
11:00 +25°C° 0 mm 3 mps 755 mmHg 46%
12:00 +26°C° 0 mm 4 mps 755 mmHg 42%
13:00 +27°C° 0 mm 4 mps 755 mmHg 37%
14:00 +27°C° 0 mm 4 mps 755 mmHg 38%
15:00 +26°C° 0 mm 3 mps 755 mmHg 39%
16:00 +26°C° 0 mm 3 mps 754 mmHg 40%
17:00 +25°C° 0 mm 3 mps 754 mmHg 46%
18:00 +23°C° 0 mm 2 mps 754 mmHg 52%
19:00 +21°C° 0 mm 2 mps 754 mmHg 57%
20:00 +21°C° 0.1 mm 1 mps 755 mmHg 65%
21:00 +20°C° 0.1 mm 1 mps 755 mmHg 72%
22:00 +19°C° 0.1 mm 1 mps 755 mmHg 79%
23:00 +18°C° 0 mm 1 mps 755 mmHg 81%
Mostrar más

Necesitamos Su Consentimiento

Meteoprog y nuestros Proveedores de Servicios pueden almacenar y acceder a sus datos personales como cookies, identificadores de dispositivo u otras tecnologías similares de su dispositivo y procesar dichos datos para personalizar contenido y anuncios, además de ofrecer funciones de redes sociales y analizar el tráfico.

  • Almacenar y/o acceder a información en su dispositivo

    Se puede almacenar o acceder a cookies, identificadores de dispositivo u otra información de su dispositivo para los fines anteriormente indicados.

  • Anuncios y contenido personalizados, medición de anuncios y contenido, percepciones del público, y desarrollo de productos

    Los anuncios y el contenido pueden personalizarse en base a su perfil. Se pueden añadir más datos para personalizar mejor los anuncios y contenidos. Se puede medir el rendimiento de los anuncios y contenidos. Se puede obtener la percepción sobre el público que ha visto los anuncios y contenidos. Dichos datos pueden usarse para desarrollar o mejorar la experiencia del usuario, sistemas y software.

Al hacer clic en ‘Estoy De Acuerdo’ usted permitirá el uso de las cookies, identificadores de dispositivo, balizas web u otras tecnologías similares indicadas. Su configuración puede cambiarse desde el navegador de su dispositivo.

Para ciertos fines, los intereses legítimos pueden ser considerados por encima del consentimiento. Puede leer más sobre ello en nuestra Política de Privacidad y Cookies.